Flag for U.S.A. Weather past 2 weeks in Fayetteville, North Carolina, U.S.A.

Now
79 °F

Light rain. Partly sunny.


Feels Like: 81 °F
Forecast: 70 / 78 °F
Wind: 8 mph from Southeast

Location: Fayetteville Regional Airport

Current Time: Jul 31, 2014 at 8:07:15 PM

Latest Report: Jul 31, 2014 at 6:53 PM


Visibility: 9 mi

Pressure: 30.08 "Hg

Humidity: 69%

Dew point: 68 °F

Location of FayettevilleLocation

Historic Weather in Fayetteville — Graph

°F

Fayetteville temperature yesterday

Maximum temperature yesterday: 86 °F (at 5:53 PM)
Minimum temperature yesterday: 61 °F (at 5:53 AM)
Average temperature yesterday: 75 °F

Past Weeks' High & Low Weather Summary

 TemperatureHumidityPressure
High96 °F (Jul 28, 2:53 PM)97% (Jul 21, 2:53 AM)30.16 "Hg (Jul 21, 2:53 AM)
Low61 °F (Jul 30, 5:53 AM)31% (Jul 28, 1:53 PM)29.73 "Hg (Jul 28, 4:53 PM)
Average78 °F71%29.99 "Hg
* Reported Jul 16 6:53 PM — Jul 31 6:53 PM, Fayetteville, Weather by CustomWeather, © 2014

Note: Actual official high and low records may vary slightly from our data, if they occured in-between our weather recording intervals... More about our weather records

Advertising

Fayetteville weather history for previous 24 hours

 ConditionsComfort  
Time TempWeatherWind HumidityBarometerVisibility
6:53 PM
Jul 31
79 °FLight rain. Partly sunny.8 mph69%30.08 "Hg9 mi
5:53 PM83 °FScattered clouds.6 mph57%30.07 "Hg10 mi
4:53 PM86 °FOvercast.13 mph48%30.06 "Hg10 mi
3:53 PM86 °FPartly sunny.10 mph48%30.06 "Hg10 mi
2:53 PM87 °FSunny.10 mph43%30.07 "Hg10 mi
1:53 PM86 °FSunny.7 mph45%30.08 "Hg10 mi
12:53 PM86 °FSunny.8 mph45%30.09 "Hg10 mi
11:53 AM85 °FSunny.13 mph51%30.10 "Hg10 mi
10:53 AM80 °FPartly sunny.8 mph67%30.10 "Hg10 mi
9:53 AM77 °FPartly sunny.3 mph77%30.09 "Hg10 mi
8:53 AM73 °FBroken clouds.3 mph84%30.09 "Hg10 mi
7:53 AM72 °FPassing clouds.5 mph87%30.08 "Hg8 mi
6:53 AM70 °FMostly cloudy.3 mph90%30.06 "Hg8 mi
5:53 AM70 °FMostly cloudy.5 mph90%30.06 "Hg10 mi
4:53 AM71 °FOvercast.5 mph84%30.05 "Hg10 mi
3:53 AM71 °FMostly cloudy.3 mph84%30.05 "Hg10 mi
2:53 AM72 °FOvercast.3 mph81%30.06 "Hg10 mi
1:53 AM74 °FOvercast.5 mph74%30.06 "Hg10 mi
12:53 AM72 °FMostly cloudy.6 mph81%30.06 "Hg10 mi
11:53 PM
Jul 30
72 °FPassing clouds.3 mph78%30.05 "Hg10 mi
10:53 PM74 °FPassing clouds.5 mph71%30.05 "Hg10 mi
9:53 PM74 °FPassing clouds.5 mph71%30.04 "Hg10 mi
8:53 PM75 °FScattered clouds.7 mph66%30.01 "Hg10 mi
Weather by CustomWeather, © 2014

See weather overviewHow to use our weather pages